TIME,�g��[���C[MJ/h],����[MJ/h],�Ɩ�[MJ/h],�~�[[MJ/h],�①��[MJ/h],��y���[MJ/h],�Ǝ��q��[MJ/h],���̑�[MJ/h],�����G�l���M�[[MJ/h]
2004/4/1 0:00,0.4517,0,1.9184,0.0111,0.5597,0.6404,0.2683,0.0616,0
2004/4/1 0:15,0.4697,0,0.5509,0.0111,0.6886,0.8699,0.1937,0.0504,0
2004/4/1 0:30,0.4689,0,0.0752,0.0109,0.1649,0.6628,0.2114,0.0497,0
2004/4/1 0:45,0.4311,0,0.0392,0.0109,0.6983,0.6058,0.2045,0.0832,0
2004/4/1 1:00,0.4258,0,0.0454,0.0109,0.5653,0.6087,0.2768,0.0868,0
2004/4/1 1:15,0.4677,0,0.0448,0.0111,0.4337,0.6582,0.1381,0.0386,0
2004/4/1 1:30,0.4735,0,0.0472,0.0109,0.6227,0.6549,0.2762,0.0196,0
2004/4/1 1:45,0.4739,0,0.0428,0.0109,0.2278,0.6536,0.1405,0.0602,0
2004/4/1 2:00,0.474,0,0.0484,0.0109,0.6863,0.6543,0.2722,0.0354,0
2004/4/1 2:15,0.465,0,0.0441,0.0109,0.5188,0.6427,0.1956,0.0144,0
2004/4/1 2:30,0.4441,0,0.0472,0.0109,0.4846,0.6204,0.2089,0.0729,0
2004/4/1 2:45,0.4477,0,0.0468,0.0108,0.4821,0.6209,0.2062,0.0675,0
2004/4/1 3:00,0.4503,0,0.0484,0.0109,0.3548,0.6284,0.2079,0.053,0
2004/4/1 3:15,0.4686,0,0.0491,0.0109,0.7847,0.653,0.2095,0.0383,0
2004/4/1 3:30,0.4749,0,0.0492,0.0109,0.4421,0.6535,0.2722,0.0164,0
2004/4/1 3:45,0.4751,0,0.052,0.0111,0.8087,0.6615,0.1426,0.0134,0
2004/4/1 4:00,0.4751,0,0.0524,0.0109,0.9926,0.6585,0.2699,0.0154,0
2004/4/1 4:15,0.4751,0,0.0521,0.0111,0.6202,0.6608,0.2078,0.0135,0
2004/4/1 4:30,0.4748,0,0.052,0.0109,0.7632,0.6647,0.2128,0.0376,0
2004/4/1 4:45,0.4755,0,0.0528,0.0111,0.4163,0.6591,0.21,0.0258,0
2004/4/1 5:00,0.4765,0,0.0533,0.0111,0.7409,0.6569,0.2125,0.0344,0
2004/4/1 5:15,0.4762,0,0.0521,0.0109,0.199,0.6751,0.2089,-0.0143,0
2004/4/1 5:30,0.4762,0,0.0523,0.0109,0.6386,0.6486,0.283,0.0164,0
2004/4/1 5:45,0.4778,0,0.0503,0.0108,0.4807,0.6581,0.1441,0.0071,0
2004/4/1 6:00,0.4779,0,0.0217,0.0108,0.4948,0.6461,0.2827,0.0599,0
2004/4/1 6:15,0.4792,0,0,0.0108,0.4075,0.648,0.145,0.0704,0
2004/4/1 6:30,0.4797,0,0.0665,0.0107,0.3694,0.7119,0.2714,0.0478,0
2004/4/1 6:45,0.4631,0,0.4412,1.0489,0.6702,0.8866,0.2064,0.1878,0
2004/4/1 7:00,0.4087,0,0.4594,0.25,0.3306,0.8712,0.2648,0.1704,0
2004/4/1 7:15,0.3982,0,0.0672,0.0108,0.6827,0.6127,0.2755,0.0753,0
2004/4/1 7:30,0.4261,0,0,0.0108,0.1401,0.6035,0.2876,0.0304,0
2004/4/1 7:45,0.3344,0,0,0.0109,0.6123,0.5053,0.213,0.163,0
2004/4/1 8:00,0.4128,0,0,0.0111,0.4586,0.615,0.2115,0.021,0
2004/4/1 8:15,0.3624,0,0,0.5558,0.5727,0.5437,0.276,0.1056,0
2004/4/1 8:30,0.3444,0,0,0.0108,0.3826,0.5208,0.1405,0.1305,0
2004/4/1 8:45,0.0049,0,0,0.0108,0.5116,0.18,0.2871,0.4535,0
2004/4/1 9:00,0.0049,0,0,0.0108,0.6036,0.1797,0.276,0.454,0
2004/4/1 9:15,0.0049,0,0.039,0.0109,0.4329,0.1944,0.2146,0.5645,0
2004/4/1 9:30,0.005,0,0.0006,0.0109,0.6035,0.4133,0.4072,0.6245,0
2004/4/1 9:45,0.0048,0,1.0236,0.0109,0.1318,0.4118,0.2943,0.6264,0
2004/4/1 10:00,0.005,0,0,0.0109,0.6857,0.4141,0.2245,0.7589,0
2004/4/1 10:15,0.0049,0,0.0183,0.0109,0.3626,0.4157,0.2488,0.5851,0
2004/4/1 10:30,0.0049,0,0,0.0109,0.6407,0.2023,0.2349,0.6049,0
2004/4/1 10:45,0.005,0,0,0.0109,0.2628,0.1812,0.1673,0.5738,0
2004/4/1 11:00,0.0049,0,0,0.0109,0.5491,0.1807,0.164,0.5904,0
2004/4/1 11:15,0.0049,0,0,0.0109,0.5747,0.1809,0.2326,0.5878,0
2004/4/1 11:30,0.005,0,0,0.0109,0.4114,0.1819,0.096,0.5885,0
2004/4/1 11:45,0.0049,0,0,0.0109,0.5263,0.181,0.2199,0.5852,0
2004/4/1 12:00,0.0049,0,0,0.0109,0.3324,0.2199,0.1646,0.58,0
2004/4/1 12:15,0.0049,0,0,0.0108,0.7138,0.1816,0.1675,0.5869,0
2004/4/1 12:30,0.005,0,0,0.0109,0.382,0.1816,0.2382,0.5543,0
2004/4/1 12:45,0.0049,0,0,0.0109,0.4536,0.182,0.0958,0.5482,0
2004/4/1 13:00,0.0049,0,0,0.0108,0.6133,0.1788,0.2307,0.5525,0
2004/4/1 13:15,0.0049,0,0,0.0108,0.4147,0.1783,0.1572,0.5599,0
2004/4/1 13:30,0.0048,0,0,0.0107,0.6674,0.1793,0.1656,0.5587,0
2004/4/1 13:45,0.0049,0,0,0.0108,0.2248,0.1794,0.157,0.5409,0
2004/4/1 14:00,0.0049,0,0,0.0108,0.6327,0.1788,0.2311,0.5521,0
2004/4/1 14:15,0.0049,0,0,0.0108,0.6094,0.1791,0.0939,0.5433,0
2004/4/1 14:30,0.0049,0,0,0.0108,0.4778,0.1794,0.2305,0.5399,0
2004/4/1 14:45,0.0049,0,0,0.0108,0.8394,0.18,0.0933,0.5532,0
2004/4/1 15:00,0.0049,0,0,0.0108,0.8532,0.18,0.2269,0.5334,0
2004/4/1 15:15,0.0049,0,0,0.0109,0.8169,0.1809,0.163,0.5432,0
2004/4/1 15:30,0.0049,0,0,0.0108,0.7659,0.1804,0.1619,0.5531,0
2004/4/1 15:45,0.0049,0,0,0.0108,0.4507,0.1799,0.1614,0.5357,0
2004/4/1 16:00,0.0049,0,0,0.0108,0.7661,0.18,0.1598,0.5515,0
2004/4/1 16:15,0.0049,0,0,0.0108,0.4985,0.1797,0.1594,0.5456,0
2004/4/1 16:30,0.0049,0,0,0.0108,0.3869,0.1801,0.2317,0.5532,0
2004/4/1 16:45,0.0049,0,0,0.0108,0.7145,0.1801,0.0929,0.5422,0
2004/4/1 17:00,0.0049,0,0,0.0109,0.3681,0.1809,0.2291,0.5374,0
2004/4/1 17:15,0.0049,0,0,0.0108,0.6006,0.1804,0.0901,0.5482,0
2004/4/1 17:30,0.0048,0,0.0003,0.0107,0.5148,0.18,0.2256,0.5545,0
2004/4/1 17:45,0.0049,0,0,0.0108,0.2664,0.1806,0.0933,0.5412,0
2004/4/1 18:00,0.0049,0,0.131,0.0108,0.7298,0.1813,0.2288,0.5849,0
2004/4/1 18:15,0.0049,0,0.6258,0.0108,0.4746,0.3187,0.0926,0.6886,0
2004/4/1 18:30,0.0048,0,0.7171,0.0108,0.5383,0.4283,0.2258,0.867,0
2004/4/1 18:45,0.0048,0,0.6955,0.0108,0.5633,0.4298,0.1621,0.8699,0
2004/4/1 19:00,0.0049,0,0.6892,0.0109,0.2506,0.4926,0.1604,0.8878,0
2004/4/1 19:15,0.005,0,0.6863,0.1879,0.7415,0.6896,0.1616,0.8292,0
2004/4/1 19:30,0.0049,0,0.6912,0.2627,0.5103,0.4121,0.1613,0.6971,0
2004/4/1 19:45,0.1427,0,0.6818,0.0111,0.5017,0.5504,0.1591,0.5096,0
2004/4/1 20:00,0.8512,0,0.6827,0.0111,0.7717,1.3596,0.165,-0.2003,0
2004/4/1 20:15,0.572,0,0.6837,0.0111,0.4098,1.075,0.1601,0.0572,0
2004/4/1 20:30,0.4946,0,0.6794,0.0111,0.498,0.9393,0.0933,0.1629,0
2004/4/1 20:45,0.45,0,0.6775,0.0109,0.5507,0.8641,0.2331,0.192,0
2004/4/1 21:00,0.4225,0,0.6772,0.0109,0.4882,0.8355,0.1274,0.2177,0
2004/4/1 21:15,0.4684,0,0.7438,0.2889,0.7124,0.8762,0.1977,0.0942,0
2004/4/1 21:30,0.4778,0,1.0881,0.0111,0.412,0.8842,0.1647,0.0285,0
2004/4/1 21:45,0.4192,0,1.0833,0.0109,0.5148,0.8312,0.1652,0.0753,0
2004/4/1 22:00,0.4052,0,0.6764,0.0109,0.5039,0.8058,0.1577,0.1531,0
2004/4/1 22:15,0.3743,0,0.7227,0.0109,0.3997,0.7868,0.1656,0.4152,0
2004/4/1 22:30,0.4306,0,1.2074,0.0108,0.7065,0.8526,0.1594,0.8009,0
2004/4/1 22:45,0.4707,0,0.7334,0.0109,0.4764,0.8961,0.1624,0.9393,0
2004/4/1 23:00,0.3612,0,0.6294,0.0109,0.6225,0.7752,0.1598,0.7767,0
2004/4/1 23:15,0.3977,0,1.3464,0.0111,0.7966,0.8027,0.2029,0.4383,0
2004/4/1 23:30,0.4045,0,0.8271,0.0108,0.3136,0.6669,0.1508,0.1993,0
2004/4/1 23:45,0.2735,0,0.5422,0.0109,0.6312,0.6736,0.2136,0.2197,0
2004/4/2 0:00,0.0049,0,0.4091,0.0111,0.6123,0.3208,0.1603,0.5,0
2004/4/2 0:15,0.005,0,0,0.0109,0.4391,0.1853,0.161,0.5354,0
2004/4/2 0:30,0.005,0,0,0.0109,0.7171,0.184,0.1539,0.5407,0
2004/4/2 0:45,0.0049,0,0,0.0109,0.5073,0.1837,0.2301,0.5151,0
2004/4/2 1:00,0.005,0,0,0.0109,0.6919,0.1845,0.0907,0.5337,0
2004/4/2 1:15,0.005,0,0,0.0111,1.1138,0.1848,0.2272,0.542,0
2004/4/2 1:30,0.0049,0,0,0.0107,0.6006,0.1807,0.091,0.5125,0
2004/4/2 1:45,0.0048,0,0,0.0108,0.8443,0.1786,0.2258,0.5442,0
2004/4/2 2:00,0.0049,0,0,0.0107,0.577,0.1806,0.1577,0.51,0
2004/4/2 2:15,0.0049,0,0,0.0108,0.588,0.1801,0.1587,0.5211,0
2004/4/2 2:30,0.0049,0,0,0.0108,0.6981,0.1801,0.1593,0.5351,0
2004/4/2 2:45,0.0049,0,0,0.0109,0.4625,0.1813,0.1629,0.5109,0
2004/4/2 3:00,0.0049,0,0,0.0108,0.8443,0.1807,0.1607,0.5204,0
2004/4/2 3:15,0.0049,0,0,0.0108,0.3865,0.1809,0.1577,0.5206,0
2004/4/2 3:30,0.005,0,0,0.0109,0.4982,0.1819,0.1541,0.5193,0
2004/4/2 3:45,0.0049,0,0,0.0108,0.6624,0.1829,0.2264,0.5404,0
2004/4/2 4:00,0.0049,0,0,0.0109,0.3825,0.183,0.0929,0.534,0
2004/4/2 4:15,0.005,0,0,0.0109,0.6768,0.1822,0.2297,0.522,0
2004/4/2 4:30,0.005,0,0,0.0109,0.3712,0.1832,0.0937,0.5306,0
2004/4/2 4:45,0.0049,0,0,0.0111,0.4686,0.1827,0.2281,0.5268,0
2004/4/2 5:00,0.005,0,0,0.0109,0.6087,0.1823,0.159,0.5347,0
2004/4/2 5:15,0.0049,0,0,0.0108,0.4226,0.1823,0.1188,0.5103,0
2004/4/2 5:30,0.0049,0,0,0.0109,0.6702,0.1803,0.2003,0.5386,0
2004/4/2 5:45,0.0049,0,0,0.0108,0.3604,0.1801,0.0937,0.5121,0
2004/4/2 6:00,0.0049,0,0,0.0108,0.7514,0.1799,0.2256,0.5134,0
2004/4/2 6:15,0.0049,0,0,0.0108,0.4788,0.1791,0.0912,0.5113,0
2004/4/2 6:30,0.0048,0,0.0484,0.0107,0.3885,0.2025,0.2251,0.5,0
2004/4/2 6:45,0.0048,0,0.5178,0.0107,0.6335,0.4087,0.2591,0.5586,0
2004/4/2 7:00,0.0048,0,0.4128,1.2573,0.3959,0.4474,0.2316,0.7199,0
2004/4/2 7:15,0.0049,0,0.1757,0.0107,0.7184,0.4091,0.1544,0.5364,0
2004/4/2 7:30,0.0049,0,0.0042,0.0108,0.416,0.3148,0.2339,0.5158,0
2004/4/2 7:45,0.005,0,0,0.0109,0.4519,0.1848,0.0945,0.448,0
2004/4/2 8:00,0.0049,0,0,0.0108,0.5877,0.1833,0.2386,0.464,0
2004/4/2 8:15,0.0049,0,0.0216,0.444,0.4447,0.251,0.1578,0.4602,0
2004/4/2 8:30,0.0049,0,0,0.284,0.6993,0.4108,0.1653,0.4869,0
2004/4/2 8:45,0.0049,0,0,0.0109,0.3699,0.4153,0.1585,0.4365,0
2004/4/2 9:00,0.0049,0,0.0256,0.0108,0.4879,0.4133,0.1657,0.4275,0
2004/4/2 9:15,0.0049,0,0,0.0108,0.5615,0.4143,0.1549,0.4445,0
2004/4/2 9:30,0.0048,0,0.12,0.0107,0.4899,0.4134,0.3659,0.4333,0
2004/4/2 9:45,0.0049,0,0.9095,0.0109,0.6709,0.4103,0.3047,0.445,0
2004/4/2 10:00,0.0049,0,0.0336,0.0108,0.3292,0.4123,0.2899,0.6271,0
2004/4/2 10:15,0.0049,0,0,0.0108,0.4895,0.2939,0.2053,0.4431,0
2004/4/2 10:30,0.0049,0,0,0.0108,0.5537,0.1837,0.2772,0.4524,0
2004/4/2 10:45,0.0049,0,0,0.0108,0.5003,0.1837,0.2856,0.4429,0
2004/4/2 11:00,0.0049,0,0,0.0108,0.75,0.1819,0.1388,0.445,0
2004/4/2 11:15,0.0049,0,0,0.0108,0.4033,0.1823,0.2779,0.4507,0
2004/4/2 11:30,0.0049,0,0,0.0107,0.9737,0.1816,0.1361,0.4657,0
2004/4/2 11:45,0.0049,0,0,0.0108,0.9747,0.182,0.2668,0.4618,0
2004/4/2 12:00,0.0049,0,0,0.0108,0.5626,0.211,0.1395,0.4391,0
2004/4/2 12:15,0.0049,0,0,0.0107,0.8025,0.1809,0.2634,0.4285,0
2004/4/2 12:30,0.0049,0,0,0.0108,0.4579,0.1814,0.2075,0.4522,0
2004/4/2 12:45,0.0048,0,0,0.0107,0.7007,0.1799,0.2028,0.444,0
2004/4/2 13:00,0.0049,0,0,0.0107,0.6706,0.18,0.204,0.4527,0
2004/4/2 13:15,0.0049,0,0,0.0108,0.2402,0.1824,0.2072,0.4241,0
2004/4/2 13:30,0.005,0,0,0.0109,0.7294,0.1848,0.2072,0.4532,0
2004/4/2 13:45,0.005,0,0,0.0109,0.4962,0.1846,0.2025,0.4447,0
2004/4/2 14:00,0.005,0,0,0.0108,0.4864,0.1842,0.1996,0.4422,0
2004/4/2 14:15,0.0049,0,0,0.0108,0.6837,0.1822,0.2677,0.4513,0
2004/4/2 14:30,0.0049,0,0,0.0108,0.5177,0.1823,0.1344,0.4487,0
2004/4/2 14:45,0.0049,0,0,0.0108,0.6684,0.1824,0.268,0.4535,0
2004/4/2 15:00,0.005,0,0,0.0108,0.5626,0.1824,0.1331,0.4566,0
2004/4/2 15:15,0.0049,0,0,0.0108,0.3591,0.1833,0.2717,0.434,0
2004/4/2 15:30,0.0049,0,0,0.0108,0.6633,0.1829,0.1323,0.4605,0
2004/4/2 15:45,0.0049,0,0,0.0107,0.6895,0.1829,0.193,0.4558,0
2004/4/2 16:00,0.0049,0,0,0.0108,0.3485,0.181,0.1983,0.4285,0
2004/4/2 16:15,0.0049,0,0,0.0107,0.4743,0.18,0.1922,0.4581,0
2004/4/2 16:30,0.0049,0,0,0.0105,0.7059,0.1796,0.1963,0.4447,0
2004/4/2 16:45,0.0048,0,0,0.0108,0.3689,0.1803,0.1872,0.5527,0
2004/4/2 17:00,0.0049,0,0,0.0107,0.6224,0.1793,0.2681,1.6603,0
2004/4/2 17:15,0.0049,0,0,0.0109,0.5164,0.184,0.1306,1.9862,0
2004/4/2 17:30,0.005,0,0,0.0111,0.3682,0.1843,0.1944,0.6628,0
2004/4/2 17:45,0.0049,0,0,0.0108,0.6605,0.1839,0.198,0.487,0
2004/4/2 18:00,0.005,0,0.0432,0.0109,0.6628,0.1832,0.1976,0.535,0
2004/4/2 18:15,0.0049,0,0.4594,0.0108,0.3164,0.1822,0.1948,0.468,0
2004/4/2 18:30,0.0049,0,0.6235,0.0105,0.4625,0.1816,0.1979,0.4673,0
2004/4/2 18:45,0.0048,0,0.7245,0.0107,0.7118,0.1812,0.1953,0.5491,0
2004/4/2 19:00,0.0049,0,0.6913,0.0108,0.3848,0.6291,0.2051,0.6892,0
2004/4/2 19:15,0.0049,0,0.6769,0.0108,0.6283,0.4902,0.1382,0.7178,0
2004/4/2 19:30,0.0049,0,0.672,0.0107,0.5475,0.3709,0.2681,0.7445,0
2004/4/2 19:45,0.0048,0,0.6728,0.0108,0.2982,0.4068,0.1447,0.6241,0
2004/4/2 20:00,0.0049,0,0.6827,0.0109,0.6938,0.4038,0.2735,0.7988,0
2004/4/2 20:15,0.0049,0,0.6696,0.0108,0.6744,0.4072,0.139,0.6614,0
2004/4/2 20:30,0.0049,0,0.6702,0.0108,0.3028,0.4056,0.2101,0.6264,0
2004/4/2 20:45,0.0049,0,0.6653,0.0107,0.5453,0.402,0.2763,0.6274,0
2004/4/2 21:00,0.6258,0,0.5815,0.0108,0.6456,1.0385,0.1413,0.1837,0
2004/4/2 21:15,0.6247,0,0.4702,0.0108,0.3712,1.1735,0.2756,0.2212,0
2004/4/2 21:30,0.5391,0,0.4638,0.0108,0.724,1.5075,0.142,0.5057,0
2004/4/2 21:45,0.5361,0,0.5829,0.0109,0.6022,1.5012,0.275,0.3478,0
2004/4/2 22:00,0.5286,0,0.7049,0.0109,0.8813,1.488,0.1404,0.265,0
2004/4/2 22:15,0.4903,0,0.4084,0.0108,0.9418,1.4478,0.2055,0.2896,0
2004/4/2 22:30,0.4607,0,0.5214,0.0108,0.6101,1.4162,0.2565,0.3038,0
2004/4/2 22:45,0.4594,0,0.4152,0.0108,0.633,1.0198,0.184,0.1696,0
2004/4/2 23:00,0.4113,0,0.4932,0.0107,0.7724,0.7952,0.252,0.1613,0
2004/4/2 23:15,0.3751,0,0.4812,0.0109,0.4091,0.7955,0.2163,0.1767,0
2004/4/2 23:30,0.3966,0,1.2915,0.0107,0.466,0.808,0.2049,0.1021,0
2004/4/2 23:45,0.3946,0,1.5359,0.0108,0.6499,0.8196,0.2668,0.0935,0
2004/4/3 0:00,0.3495,0,0.668,0.0109,0.3855,0.7479,0.202,0.3089,0
2004/4/3 0:15,0.1755,0,0.397,0.0109,0.6787,0.5748,0.2759,0.4056,0
2004/4/3 0:30,0.0049,0,0.0603,0.0108,0.4843,0.2088,0.1349,0.5314,0
2004/4/3 0:45,0.005,0,0,0.0108,0.5976,0.1804,0.2694,0.5243,0
2004/4/3 1:00,0.0049,0,0,0.0108,0.7034,0.18,0.1361,0.5314,0
2004/4/3 1:15,0.0049,0,0,0.0109,0.1987,0.1803,0.2688,0.506,0
2004/4/3 1:30,0.005,0,0,0.0108,0.6353,0.1804,0.193,0.5167,0
2004/4/3 1:45,0.005,0,0,0.0109,0.563,0.1804,0.2186,0.5368,0
2004/4/3 2:00,0.0049,0,0,0.0109,0.4552,0.1803,0.2076,0.526,0
2004/4/3 2:15,0.005,0,0,0.0108,0.5934,0.1812,0.2056,0.5259,0
2004/4/3 2:30,0.0049,0,0,0.0108,0.2177,0.1788,0.1997,0.5155,0
2004/4/3 2:45,0.0049,0,0,0.0108,0.6781,0.1791,0.2071,0.5236,0
2004/4/3 3:00,0.0049,0,0,0.0108,0.5034,0.1799,0.2035,0.5028,0
2004/4/3 3:15,0.005,0,0,0.0108,0.4427,0.1801,0.2719,0.5105,0
2004/4/3 3:30,0.0049,0,0,0.0108,0.5103,0.1803,0.1385,0.522,0
2004/4/3 3:45,0.005,0,0,0.0109,0.3531,0.1803,0.2755,0.5342,0
2004/4/3 4:00,0.005,0,0,0.0108,0.7154,0.1796,0.1683,0.5162,0
2004/4/3 4:15,0.0049,0,0,0.0109,0.3172,0.1807,0.2491,0.556,0
2004/4/3 4:30,0.005,0,0,0.0109,0.4507,0.1803,0.2097,0.5262,0
2004/4/3 4:45,0.005,0,0,0.0109,0.5194,0.1806,0.2095,0.5223,0
2004/4/3 5:00,0.0049,0,0,0.0109,0.4872,0.1797,0.1993,0.525,0
2004/4/3 5:15,0.005,0,0,0.0108,0.5399,0.1799,0.2674,0.5135,0
2004/4/3 5:30,0.0049,0,0.2179,0.0109,0.2013,0.2975,0.1436,0.5472,0
2004/4/3 5:45,0.005,0,0.42,0.0108,0.6928,0.4046,0.2769,0.5538,0
2004/4/3 6:00,0.4677,0,0.506,0.0108,0.3756,0.8797,0.2965,0.0832,0
2004/4/3 6:15,0.714,0,0.4092,0.0107,0.536,1.1291,0.2236,-0.1403,0
2004/4/3 6:30,0.5911,0,0.4059,0.0107,0.3145,1.0076,0.2752,-0.0131,0
2004/4/3 6:45,0.5255,0,0.2385,0.0107,0.5638,0.9505,0.2112,0.0359,0
2004/4/3 7:00,0.4998,0,0.0017,0.0108,0.5527,0.9671,0.2182,0.0907,0
2004/4/3 7:15,0.4866,0,0,1.713,0.4648,0.9229,0.2694,0.1227,0
2004/4/3 7:30,0.4745,0,0,0.1858,0.4418,0.9004,0.2812,0.0665,0
2004/4/3 7:45,0.303,0,0,0.0108,0.304,0.646,0.21,0.1362,0
2004/4/3 8:00,0.0049,0,0,0.0108,0.7223,0.1807,0.2172,0.4355,0
2004/4/3 8:15,0.0049,0,0.0012,0.0108,0.3912,0.1809,0.5112,0.4095,0
2004/4/3 8:30,0.0049,0,0.0461,0.0108,0.7043,0.3853,1.0064,0.4291,0
2004/4/3 8:45,0.0048,0,0.0366,0.0108,0.6041,0.4327,0.9302,0.3852,0
2004/4/3 9:00,0.0049,0,0.0396,0.0108,0.976,0.4297,0.8927,0.3689,0
2004/4/3 9:15,0.0049,0,0.0811,0.0109,0.7497,0.4018,0.5102,0.3943,0
2004/4/3 9:30,0.0049,0,0.5845,0.0109,0.5741,0.2393,0.2429,0.4368,0
2004/4/3 9:45,0.0049,0,0.0272,0.0108,0.7137,0.2386,0.2844,0.578,0
2004/4/3 10:00,0.0027,0,0,0.0108,0.3923,0.3385,0.2881,0.4584,0
2004/4/3 10:15,0,0,0,0.0108,0.5194,0.2339,0.2264,0.4342,0
2004/4/3 10:30,0,0,0,0.0108,0.3656,0.2327,0.2912,0.4418,0
2004/4/3 10:45,0,0,0,0.0108,0.6565,0.2336,0.2189,0.4326,0
2004/4/3 11:00,0,0,0,0.0109,0.4599,0.2343,0.2256,0.453,0
2004/4/3 11:15,0,0,0,0.0108,0.3662,0.2339,0.2172,0.4562,0
2004/4/3 11:30,0,0,0,0.0108,0.5845,0.2331,0.2841,0.4445,0
2004/4/3 11:45,0,0,0,0.0108,0.4149,0.2334,0.1515,0.4261,0
2004/4/3 12:00,0,0,0,0.0107,0.6673,0.2697,0.2844,0.4221,0
2004/4/3 12:15,0,0,0,0.0108,0.1794,0.2333,0.2161,0.4444,0
2004/4/3 12:30,0,0,0.0003,0.0108,0.6068,0.2242,0.2148,0.4372,0
2004/4/3 12:45,0,0,0,0.0108,0.5266,0.1755,0.2066,0.4545,0
2004/4/3 13:00,0,0,0,0.0108,0.4416,0.1751,0.2771,0.4653,0
2004/4/3 13:15,0,0,0,0.0107,0.5072,0.175,0.1374,0.4728,0
2004/4/3 13:30,0,0,0,0.0107,0.2945,0.1747,0.2703,0.4324,0
2004/4/3 13:45,0,0,0,0.0108,0.6749,0.1748,0.2036,0.4612,0
2004/4/3 14:00,0,0,0.0003,0.0107,0.5298,0.1737,0.1505,0.4572,0
2004/4/3 14:15,0,0,0,0.0108,0.3079,0.175,0.2825,0.4673,0
2004/4/3 14:30,0,0,0,0.0107,0.6418,0.1738,0.1449,0.4563,0
2004/4/3 14:45,0,0,0,0.0108,0.3756,0.174,0.2709,0.4427,0
2004/4/3 15:00,0,0,0,0.0107,0.6415,0.1741,0.2196,0.444,0
2004/4/3 15:15,0,0,0,0.0108,0.4666,0.1742,0.2078,0.4893,0
2004/4/3 15:30,0,0,0,0.0107,0.3145,0.1742,0.2081,0.4582,0
2004/4/3 15:45,0,0,0,0.0108,0.6872,0.1737,0.2832,0.432,0
2004/4/3 16:00,0,0,0,0.0108,0.4828,0.1738,0.145,0.4501,0
2004/4/3 16:15,0,0,0,0.0107,0.419,0.1741,0.2808,0.4504,0
2004/4/3 16:30,0,0,0,0.0107,0.5443,0.1742,0.2105,0.4599,0
2004/4/3 16:45,0,0,0,0.0107,0.3796,0.1731,0.2143,0.4595,0
2004/4/3 17:00,0,0,0,0.0107,0.6404,0.1731,0.2107,0.4666,0
2004/4/3 17:15,0,0,0,0.0107,0.5937,0.174,0.1436,0.4631,0
2004/4/3 17:30,0,0,0,0.0108,0.1646,0.1835,0.2723,0.4658,0
2004/4/3 17:45,0,0,0.0848,0.0107,0.7239,0.3986,0.211,0.4343,0
2004/4/3 18:00,0,0,0.2015,0.0108,0.5391,0.2164,0.2828,0.4186,0
2004/4/3 18:15,0,0,0.2268,0.0107,0.4693,0.1761,0.1898,0.4581,0
2004/4/3 18:30,0,0,0.2262,0.0107,0.5049,0.1758,0.2627,0.4653,0
2004/4/3 18:45,0,0,0.5344,0.0109,0.409,0.192,0.2016,0.5645,0
2004/4/3 19:00,0,0,0.74,0.0108,0.625,0.3964,0.2049,0.6964,0
2004/4/3 19:15,0,0,0.7217,0.0109,0.6371,0.3642,0.2043,0.6749,0
2004/4/3 19:30,0,0,0.7089,0.0111,0.4271,0.384,0.1348,0.6785,0
2004/4/3 19:45,0,0,0.703,0.0109,1.0738,0.3812,0.2667,0.6146,0
2004/4/3 20:00,0,0,0.7016,0.0109,0.8196,0.4049,0.1967,0.5527,0
2004/4/3 20:15,0,0,0.699,0.0109,0.67,0.4071,0.2055,0.5208,0
2004/4/3 20:30,0.5309,0,0.699,0.0109,0.7953,0.9459,0.201,0.0114,0
2004/4/3 20:45,0.6437,0,0.6996,0.0111,0.3973,1.0613,0.2762,-0.1093,0
2004/4/3 21:00,0.509,0,0.7668,0.0111,0.7384,0.923,0.1365,0.042,0
2004/4/3 21:15,0.4831,0,0.4778,0.4234,0.3565,0.9027,0.1976,0.1001,0
2004/4/3 21:30,0.4791,0,0.7838,0.0109,0.4886,0.8777,0.1996,0.1331,0
2004/4/3 21:45,0.4709,0,0.9118,0.0109,0.7106,0.8745,0.1997,0.2372,0
2004/4/3 22:00,0.3702,0,0.4787,0.0109,0.3322,0.7929,0.2654,0.4097,0
2004/4/3 22:15,0.4717,0,0.5476,0.0108,0.6222,0.8873,0.142,0.2884,0
2004/4/3 22:30,0.4015,0,0.5996,0.0109,0.3807,0.81,0.3299,0.6708,0
2004/4/3 22:45,0.4326,0,0.645,0.0108,0.4393,0.8303,0.2029,0.4344,0
2004/4/3 23:00,0.3915,0,1.0207,0.0109,0.7181,0.7939,0.2727,0.3334,0
2004/4/3 23:15,0.4427,0,0.4219,0.0109,0.3564,0.8556,0.1447,0.3552,0
2004/4/3 23:30,0.3859,0,1.0768,0.0109,0.5995,0.596,0.2848,0.1714,0
2004/4/3 23:45,0.4784,0,1.0973,0.0109,0.4042,0.6755,0.2072,0.0265,0
2004/4/4 0:00,0.364,0,0.344,0.0109,0.5021,0.7292,0.2827,0.0962,0
2004/4/4 0:15,0.005,0,0,0.0109,0.688,0.1819,0.211,0.5191,0
2004/4/4 0:30,0.005,0,0,0.0109,0.2843,0.18,0.2144,0.5216,0
2004/4/4 0:45,0.005,0,0,0.0109,0.5066,0.1807,0.2068,0.5566,0
2004/4/4 1:00,0.0049,0,0,0.0109,0.4838,0.1804,0.2729,0.5113,0
2004/4/4 1:15,0.005,0,0,0.0109,0.543,0.1816,0.2107,0.519,0
2004/4/4 1:30,0.005,0,0,0.0111,0.5947,0.1823,0.2157,0.5234,0
2004/4/4 1:45,0.005,0,0,0.0109,0.2291,0.1812,0.218,0.5079,0
2004/4/4 2:00,0.005,0,0,0.0108,0.7184,0.1794,0.2154,0.5155,0
2004/4/4 2:15,0.0049,0,0,0.0108,0.3483,0.18,0.2169,0.5191,0
2004/4/4 2:30,0.005,0,0,0.0109,0.5937,0.1809,0.2233,0.5342,0
2004/4/4 2:45,0.005,0,0,0.0111,0.3437,0.1814,0.2177,0.5486,0
2004/4/4 3:00,0.005,0,0,0.0109,0.5486,0.1819,0.2173,0.5334,0
2004/4/4 3:15,0.0049,0,0,0.0108,0.5799,0.1803,0.2183,0.5435,0
2004/4/4 3:30,0.0049,0,0,0.0108,0.3384,0.1794,0.2123,0.5384,0
2004/4/4 3:45,0.0049,0,0,0.0107,0.5642,0.1773,0.2782,0.5031,0
2004/4/4 4:00,0.005,0,0,0.0109,0.3344,0.1796,0.1496,0.5027,0
2004/4/4 4:15,0.0049,0,0,0.0108,0.6911,0.1794,0.275,0.5295,0
2004/4/4 4:30,0.005,0,0,0.0109,0.3372,0.1801,0.2851,0.5335,0
2004/4/4 4:45,0.0049,0,0,0.0108,0.4491,0.1797,0.1511,0.5213,0
2004/4/4 5:00,0.005,0,0,0.0109,0.4982,0.1801,0.2879,0.5268,0
2004/4/4 5:15,0.0049,0,0,0.0108,0.5194,0.1791,0.2189,0.4987,0
2004/4/4 5:30,0.005,0,0,0.0108,0.4434,0.1783,0.2183,0.5391,0
2004/4/4 5:45,0.0049,0,0,0.0108,0.3161,0.1793,0.2179,0.5511,0
2004/4/4 6:00,0.0049,0,0,0.0108,0.6333,0.1796,0.2511,0.5239,0
2004/4/4 6:15,0.005,0,0,0.0109,0.4084,0.1791,0.1848,0.5171,0
2004/4/4 6:30,0.0049,0,0,0.0107,0.717,0.1778,0.2881,0.5023,0
2004/4/4 6:45,0.0048,0,0,0.0108,0.7017,0.1776,0.1528,0.5289,0
2004/4/4 7:00,0.0049,0,0,0.0107,1.0398,0.2157,0.2881,0.5208,0
2004/4/4 7:15,0.0049,0,0.0156,0.0108,0.4961,0.1776,0.2295,0.51,0
2004/4/4 7:30,0.0049,0,0.4228,0.0108,0.6876,0.4012,0.214,0.575,0
2004/4/4 7:45,0.0048,0,0.4704,0.0108,0.5196,0.4435,0.2614,0.7397,0
2004/4/4 8:00,0.0048,0,0.4411,0.0108,0.4625,0.4848,0.4236,1.5496,0
2004/4/4 8:15,0.0048,0,0.4391,0.0108,0.4477,0.4814,0.9016,0.7419,0
2004/4/4 8:30,0.0049,0,0.5414,0.4579,0.4925,0.4481,0.5124,0.6813,0
2004/4/4 8:45,0.0048,0,0.4044,0.0108,0.5754,0.4416,0.2222,0.6798,0
2004/4/4 9:00,0.0048,0,0.4284,0.0108,0.2784,0.6097,0.4048,0.4988,0
2004/4/4 9:15,0.0049,0,0.4343,0.0109,0.5712,0.61,0.2832,0.451,0
2004/4/4 9:30,0.005,0,0.4199,0.0111,0.3499,0.4656,0.1809,0.4473,0
2004/4/4 9:45,0.0049,0,0.4065,0.0107,0.6795,0.3761,0.2539,1.4826,0
2004/4/4 10:00,0.0161,0,1.8131,0.0108,0.3178,0.3977,0.2176,1.4868,0
2004/4/4 10:15,1.1049,0,0.8675,0.0109,0.5924,1.6798,0.3096,-0.5829,0
2004/4/4 10:30,0.61,0,0.4857,0.0109,0.1682,1.1661,0.3681,-0.1234,0
2004/4/4 10:45,0.5872,0,0.4605,0.0109,0.6807,1.0014,0.2218,-0.067,0
2004/4/4 11:00,0.5355,0,0.4605,0.0111,0.3982,0.9613,0.2176,-0.0397,0
2004/4/4 11:15,0.4769,0,0.5452,0.0109,0.5816,0.9259,0.2933,-0.0272,0
2004/4/4 11:30,0.4671,0,0.6497,0.0109,0.4123,0.9232,0.2503,0.2429,0
2004/4/4 11:45,0.4614,0,0.1395,0.2848,0.3565,1.0822,0.2925,0.0776,0
2004/4/4 12:00,0.4624,0,0,0.0109,0.4202,1.1474,0.2939,0.0648,0
2004/4/4 12:15,0.4414,0,0,0.0109,0.5527,1.0869,0.3002,0.0762,0
2004/4/4 12:30,0.4452,0,0.0454,0.0108,0.506,1.2007,0.2818,0.2968,0
2004/4/4 12:45,0.402,0,0,0.6019,0.445,1.2011,0.148,0.3889,0
2004/4/4 13:00,0.3992,0,0,0.0108,0.6327,1.1665,0.291,0.1921,0
2004/4/4 13:15,0.4395,0,0.0242,0.0108,0.4956,1.2151,0.3221,0.0922,0
2004/4/4 13:30,0.4022,0,0,0.0109,0.4719,1.1641,0.2373,0.145,0
2004/4/4 13:45,0.3708,0,0,0.0108,0.2491,1.1448,0.3136,0.1837,0
2004/4/4 14:00,0.337,0,0,0.0108,0.7109,1.2672,0.2418,0.2305,0
2004/4/4 14:15,0.4088,0,0,0.0109,0.3112,1.374,0.2424,0.1423,0
2004/4/4 14:30,0.3368,0,0,0.0109,0.6863,1.2897,0.2484,0.2244,0
2004/4/4 14:45,0.3263,0,0,0.0108,0.3917,1.2875,0.3177,0.2138,0
2004/4/4 15:00,0.3226,0,0,0.0107,0.7154,1.2741,0.309,0.2123,0
2004/4/4 15:15,0.3217,0,0,0.0109,0.1974,1.2315,0.1817,0.2295,0
2004/4/4 15:30,0.3218,0,0,0.0109,0.4936,1.22,0.3122,0.213,0
2004/4/4 15:45,0.3204,0,0,0.0111,0.4569,1.2332,0.2441,0.2202,0
2004/4/4 16:00,0.3292,0,0,0.0109,0.5685,1.2514,0.2537,0.2187,0
2004/4/4 16:15,0.3286,0,0,0.0108,0.4494,1.2302,0.3109,0.2297,0
2004/4/4 16:30,0.3279,0,0,0.0109,0.311,1.2469,0.2431,0.1882,0
2004/4/4 16:45,0.3264,0,0,0.0109,0.4728,1.248,0.3262,0.2271,0
2004/4/4 17:00,0.3223,0,0.0072,0.0108,0.4939,1.2388,0.1878,0.9468,0
2004/4/4 17:15,0.3275,0,0.4804,0.0109,0.5381,1.2332,0.3295,0.6826,0
2004/4/4 17:30,0.329,0,0.8191,0.0109,0.4736,1.2516,0.2575,0.516,0
2004/4/4 17:45,0.329,0,0.7547,0.0111,0.9036,1.2639,0.2573,0.4836,0
2004/4/4 18:00,0.327,0,0.906,0.0109,0.8119,1.2547,0.3194,0.7184,0
2004/4/4 18:15,0.3273,0,0.9351,0.0109,0.8054,1.2489,0.319,0.8454,0
2004/4/4 18:30,0.3305,0,0.8542,0.0108,0.4281,1.1843,0.1799,0.8247,0
2004/4/4 18:45,0.3328,0,0.6926,0.0109,0.7667,0.9733,0.3138,0.2015,0
2004/4/4 19:00,0.3738,0,0.6929,0.0108,0.3895,1.0372,0.248,0.1562,0
2004/4/4 19:15,0.3688,0,0.7072,0.0109,0.4218,1.0149,0.3154,0.4018,0
2004/4/4 19:30,0.3309,0,0.6405,0.0109,0.4059,1.1431,0.2534,0.923,0
2004/4/4 19:45,0.3273,0,0.636,0.0108,0.6258,1.1972,0.2428,0.6762,0
2004/4/4 20:00,0.3216,0,0.4058,0.0109,0.4487,1.1808,0.3159,0.651,0